#timestamp,LO_Frequency,Hit,StdDev 
1505941215.5,286047000.6,N
1505941235.3,286046999.8,N
1505941255.1,286047001.6,N
1505941275.8,286047002.1,N
1505941295.7,286047002.0,N
1505941315.5,286047002.2,N
1505941335.3,286047004.1,N
1505941355.2,286047000.5,N
1505941375.0,286047000.7,N
1505941375.9,286047000.7,N
1505941395.7,286046999.4,N
1505941415.6,286046992.1,N
1505941435.4,286046988.9,Y
1505941455.2,286046987.9,P
1505941475.1,286046987.7,N
1505941476.0,286046987.7,N
1505941495.8,286046988.1,N
1505941515.6,286046987.1,N
1505941535.5,286046985.4,N
1505941555.3,286046986.4,N
1505941575.1,286046982.5,Y
1505941595.9,286046991.8,P
1505941615.7,286046992.5,P
1505941635.5,286046991.4,P
1505941655.4,286046989.8,Y
1505941675.2,286046999.1,P
1505941695.0,286046998.7,N
1505941695.9,286046998.7,N
1505941715.8,286046999.3,N
1505941735.6,286046998.9,N
1505941755.4,286047002.2,N
1505941775.3,286047000.8,N
1505941795.1,286047001.2,N
1505941796.0,286047001.2,N
1505941815.8,286047001.3,N
1505941835.7,286047000.1,N
1505941855.5,286047000.9,N
1505941875.3,286047001.1,N
1505941895.2,286047000.4,N
1505941915.9,286047004.3,N
1505941935.7,286047002.2,N
1505941955.5,286046998.3,N
1505941975.4,286046998.5,N
1505941995.2,286047000.2,N
1505942015.0,286047002.8,N
1505942015.9,286047002.8,N
1505942035.8,286047002.7,N
1505942055.6,286047004.3,N
1505942075.4,286047007.1,N
1505942095.3,286047009.1,Y
1505942115.1,286047007.0,P
1505942135.8,286047007.2,N
1505942155.7,286047007.1,N
1505942175.5,286047007.5,N
1505942195.3,286047008.4,Y
1505942215.2,286047005.8,P
1505942235.9,286047005.0,P
1505942255.7,286047003.4,P
1505942275.6,286047005.0,Y
1505942295.4,286047002.4,P
1505942315.2,286047003.8,N
1505942335.1,286047003.6,P
1505942336.0,286047003.6,Y
1505942355.8,286046999.2,P
1505942375.6,286046997.8,N
1505942395.5,286047000.3,N
1505942415.3,286047002.1,N
1505942435.1,286047001.4,N
1505942455.9,286046997.3,N
1505942475.7,286047000.9,N
1505942495.5,286046999.8,N
1505942515.4,286047002.0,N
1505942535.2,286047007.0,Y
1505942555.0,286047008.1,P
1505942555.9,286047008.1,N
1505942575.8,286047011.7,P
1505942595.6,286047010.3,N
1505942615.4,286047007.7,N
1505942635.2,286047004.9,N
1505942655.1,286047005.0,N
1505942656.0,286047005.0,N
1505942675.8,286047009.1,N
1505942695.7,286047009.9,Y
1505942715.5,286047003.0,P
1505942735.3,286047006.3,P
1505942755.1,286047005.2,N
1505942775.9,286047005.0,Y
1505942795.7,286047000.8,P
1505942815.5,286047002.3,N
1505942835.4,286046996.9,N
1505942855.2,286046994.9,N
1505942875.0,286046994.9,N
1505942875.9,286046994.9,N
1505942895.8,286046991.8,N
1505942915.6,286046988.6,N
1505942935.4,286046991.4,N
1505942955.3,286046990.3,N
1505942975.1,286046992.0,N
1505942976.0,286046992.0,N
1505942995.8,286046991.6,N
1505943015.7,286046990.9,N
1505943035.5,286046990.5,N
1505943055.3,286046994.7,N
1505943075.2,286046992.0,N
1505943095.9,286046997.9,N
1505943115.7,286046996.5,N
1505943135.5,286046996.6,N
1505943155.4,286046997.6,N
1505943175.2,286047000.0,N
1505943195.0,286047001.9,N
1505943195.9,286047001.9,N
1505943215.8,286047005.3,N
1505943235.6,286047005.9,N
1505943255.4,286047003.1,N
1505943275.3,286047001.4,N
1505943295.1,286047003.1,N
1505943296.0,286047003.1,N
1505943315.8,286047005.2,N
1505943335.7,286047007.2,N
1505943355.5,286047007.5,N
1505943375.3,286047007.4,N
1505943395.2,286047007.8,N
1505943415.9,286047009.8,N
1505943435.7,286047009.4,N
1505943455.5,286047010.8,N
1505943475.4,286047011.9,N
1505943495.2,286047010.3,N
1505943515.0,286047011.6,N
1505943515.9,286047011.6,N
1505943535.8,286047012.2,N
1505943555.6,286047012.4,N
1505943575.4,286047011.2,N
1505943595.3,286047012.2,N
1505943615.1,286047009.5,N
1505943616.0,286047009.5,N
1505943635.8,286047007.9,N
1505943655.7,286047008.5,N
1505943675.5,286047010.8,N
1505943695.3,286047010.4,N
1505943715.2,286047008.2,N
1505943735.9,286047008.3,N
1505943755.7,286047007.5,N
1505943775.5,286047005.4,N
1505943795.4,286047004.6,N
1505943815.2,286047005.8,N
1505943835.0,286047006.7,N
1505943835.9,286047006.7,N
1505943855.8,286047005.8,N
1505943875.6,286047004.4,N
1505943895.4,286046999.7,N
1505943915.3,286047002.6,N
1505943935.1,286046998.2,N
1505943955.8,286046999.0,N
1505943975.7,286046997.7,N
1505943995.5,286046999.5,N
1505944015.3,286046997.3,N
1505944035.2,286046997.7,N
1505944055.9,286046998.0,N
1505944075.7,286046995.0,N
1505944095.6,286046994.7,N
1505944115.4,286046992.4,N
1505944135.2,286046991.2,N
1505944155.0,286046990.2,N
1505944155.9,286046990.2,N
1505944175.8,286046991.4,N
1505944195.6,286046987.3,N
1505944215.4,286046987.0,N
1505944235.3,286046989.5,N
1505944255.1,286046991.5,N
1505944275.8,286046990.2,N
1505944295.7,286046992.0,N
1505944315.5,286046994.0,N
1505944335.3,286046994.2,N
1505944355.2,286046993.5,N
1505944375.9,286046997.7,N
1505944395.7,286046996.8,N
1505944415.6,286046997.2,N
1505944435.4,286046999.0,N
1505944455.2,286047001.0,N
1505944475.0,286046999.4,N
1505944476.0,286046999.4,N
1505944495.8,286046998.4,N
1505944515.6,286047002.8,N
1505944535.4,286047004.0,N
1505944555.3,286047002.9,N
1505944575.1,286047003.4,N
1505944595.8,286047007.2,N
1505944615.7,286047007.3,N
1505944635.5,286047008.3,N
1505944655.3,286047008.1,N
1505944675.2,286047008.4,N
1505944695.9,286047010.1,N
1505944715.7,286047006.7,N
1505944735.6,286047000.6,N
1505944755.4,286047002.1,N
1505944775.2,286047001.6,N
1505944795.1,286047006.0,N
1505944796.0,286047006.0,N
